Location: Buch
(49.7331°N, 12.1098°E)
Time: 00:02:17
(UTC+00:00)

Cosmos 468 - Pass Details

Date: 12 May 2021
Orbit: 762 x 783 km, 74.0° (Epoch: 18 June)

Event Time Altitude Azimuth Distance (km) Brightness Sun altitude
Rises 22:34:07 0° 336° (NNW) 3,264 9.1 -21.5°
Reaches altitude 10° 22:36:31 10° 336° (NNW) 2,330 8.1 -21.5°
Maximum altitude 22:41:49 89° 248° (WSW) 777 4.4 -21.6°
Enters shadow 22:43:16 50° 158° (SSE) 980 4.6 -21.7°
